Simultaneous Nadir Overpasses (SNOs) Predictions

Prediction of SNOs between GOES-17 and METOP-C Satellite Orbit:

Table of predicted SNOs for the next 14.0 days since TLE Epoch: 11/29/2019
Index Date Time (GOES-17) GOES-17 Lat,Lon METOP-C Lat,Lon Distance(km) Time Diff (sec)
1 11/30/2019 06:27:12 -0.04,-137.21 0.71,-133.96 371.13 80
2 12/01/2019 18:43:23 0.04,-137.20 0.31,-138.52 149.34 80
3 12/02/2019 18:25:23 0.05,-137.20 -0.76,-133.51 419.71 80
4 12/04/2019 06:41:42 -0.05,-137.20 -0.26,-138.11 104.10 80
5 12/05/2019 06:23:42 -0.05,-137.19 0.87,-133.12 464.62 80
6 12/06/2019 18:39:54 0.05,-137.18 0.14,-137.68 56.65 80
7 12/09/2019 06:38:13 -0.05,-137.16 -0.10,-137.27 13.36 80
8 12/11/2019 18:39:04 0.05,-137.12 -0.03,-136.84 32.08 80
9 12/13/2019 06:55:24 -0.05,-137.09 -1.01,-141.44 494.40 80




NCC Satellite Simultaneous Nadir Overpasses (SNOs) Prediction Service
